Year,Month,Day,Hour,Minute,Value (Times are PST for temperature in C)
2020,04,26,00,00,8.20
2020,04,26,00,01,8.20
2020,04,26,00,02,8.10
2020,04,26,00,03,8.10
2020,04,26,00,04,8.00
2020,04,26,00,05,8.00
2020,04,26,00,06,7.90
2020,04,26,00,07,7.90
2020,04,26,00,08,7.80
2020,04,26,00,09,7.80
2020,04,26,00,10,7.80
2020,04,26,00,11,7.80
2020,04,26,00,12,7.70
2020,04,26,00,13,7.70
2020,04,26,00,14,7.70
2020,04,26,00,15,7.70
2020,04,26,00,16,7.60
2020,04,26,00,17,7.60
2020,04,26,00,18,7.60
2020,04,26,00,19,7.50
2020,04,26,00,20,7.50
2020,04,26,00,21,7.50
2020,04,26,00,22,7.50
2020,04,26,00,23,7.40
2020,04,26,00,24,7.40
2020,04,26,00,25,7.40
2020,04,26,00,26,7.40
2020,04,26,00,27,7.30
2020,04,26,00,28,7.30
2020,04,26,00,29,7.30
2020,04,26,00,30,7.30
2020,04,26,00,31,7.30
2020,04,26,00,32,7.30
2020,04,26,00,33,7.30
2020,04,26,00,34,7.30
2020,04,26,00,35,7.30
2020,04,26,00,36,7.30
2020,04,26,00,37,7.20
2020,04,26,00,38,7.20
2020,04,26,00,39,7.20
2020,04,26,00,40,7.20
2020,04,26,00,41,7.20
2020,04,26,00,42,7.20
2020,04,26,00,43,7.20
2020,04,26,00,44,7.20
2020,04,26,00,45,7.20
2020,04,26,00,46,7.20
2020,04,26,00,47,7.20
2020,04,26,00,48,7.10
2020,04,26,00,49,7.10
2020,04,26,00,50,7.10
2020,04,26,00,51,7.10
2020,04,26,00,52,7.10
2020,04,26,00,53,7.10
2020,04,26,00,54,7.00
2020,04,26,00,55,7.00
2020,04,26,00,56,7.00
2020,04,26,00,57,7.00
2020,04,26,00,58,7.00
2020,04,26,00,59,6.90
2020,04,26,01,00,6.90
2020,04,26,01,01,6.90
2020,04,26,01,02,6.90
2020,04,26,01,03,6.90
2020,04,26,01,04,6.90
2020,04,26,01,05,6.90
2020,04,26,01,06,6.90
2020,04,26,01,07,6.90
2020,04,26,01,08,6.90
2020,04,26,01,09,6.90
2020,04,26,01,10,6.80
2020,04,26,01,11,6.80
2020,04,26,01,12,6.80
2020,04,26,01,13,6.80
2020,04,26,01,14,6.80
2020,04,26,01,15,6.80
2020,04,26,01,16,6.80
2020,04,26,01,17,6.80
2020,04,26,01,18,6.80
2020,04,26,01,19,6.80
2020,04,26,01,20,6.80
2020,04,26,01,21,6.80
2020,04,26,01,22,6.80
2020,04,26,01,23,6.80
2020,04,26,01,24,6.80
2020,04,26,01,25,6.80
2020,04,26,01,26,6.80
2020,04,26,01,27,6.70
2020,04,26,01,28,6.70
2020,04,26,01,29,6.70
2020,04,26,01,30,6.60
2020,04,26,01,31,6.60
2020,04,26,01,32,6.60
2020,04,26,01,33,6.60
2020,04,26,01,34,6.50
2020,04,26,01,35,6.50
2020,04,26,01,36,6.50
2020,04,26,01,37,6.40
2020,04,26,01,38,6.40
2020,04,26,01,39,6.40
2020,04,26,01,40,6.40
2020,04,26,01,41,6.40
2020,04,26,01,42,6.30
2020,04,26,01,43,6.30
2020,04,26,01,44,6.30
2020,04,26,01,45,6.30
2020,04,26,01,46,6.30
2020,04,26,01,47,6.30
2020,04,26,01,48,6.30
2020,04,26,01,49,6.30
2020,04,26,01,50,6.30
2020,04,26,01,51,6.30
2020,04,26,01,52,6.30
2020,04,26,01,53,6.30
2020,04,26,01,54,6.20
2020,04,26,01,55,6.20
2020,04,26,01,56,6.20
2020,04,26,01,57,6.20
2020,04,26,01,58,6.20
2020,04,26,01,59,6.20
2020,04,26,02,00,6.20
2020,04,26,02,01,6.10
2020,04,26,02,02,6.10
2020,04,26,02,03,6.10
2020,04,26,02,04,6.10
2020,04,26,02,05,6.10
2020,04,26,02,06,6.10
2020,04,26,02,07,6.10
2020,04,26,02,08,6.00
2020,04,26,02,09,6.00
2020,04,26,02,10,6.00
2020,04,26,02,11,5.90
2020,04,26,02,12,5.90
2020,04,26,02,13,5.90
2020,04,26,02,14,5.90
2020,04,26,02,15,5.90
2020,04,26,02,16,5.90
2020,04,26,02,17,5.80
2020,04,26,02,18,5.80
2020,04,26,02,19,5.80
2020,04,26,02,20,5.80
2020,04,26,02,21,5.80
2020,04,26,02,22,5.80
2020,04,26,02,23,5.80
2020,04,26,02,24,5.80
2020,04,26,02,25,5.80
2020,04,26,02,26,5.80
2020,04,26,02,27,5.80
2020,04,26,02,28,5.80
2020,04,26,02,29,5.80
2020,04,26,02,30,5.80
2020,04,26,02,31,5.80
2020,04,26,02,32,5.80
2020,04,26,02,33,5.80
2020,04,26,02,34,5.80
2020,04,26,02,35,5.70
2020,04,26,02,36,5.70
2020,04,26,02,37,5.70
2020,04,26,02,38,5.70
2020,04,26,02,39,5.70
2020,04,26,02,40,5.70
2020,04,26,02,41,5.70
2020,04,26,02,42,5.70
2020,04,26,02,43,5.70
2020,04,26,02,44,5.70
2020,04,26,02,45,5.70
2020,04,26,02,46,5.70
2020,04,26,02,47,5.60
2020,04,26,02,48,5.60
2020,04,26,02,49,5.60
2020,04,26,02,50,5.60
2020,04,26,02,51,5.60
2020,04,26,02,52,5.60
2020,04,26,02,53,5.60
2020,04,26,02,54,5.60
2020,04,26,02,55,5.60
2020,04,26,02,56,5.60
2020,04,26,02,57,5.60
2020,04,26,02,58,5.60
2020,04,26,02,59,5.60
2020,04,26,03,00,5.60
2020,04,26,03,01,5.60
2020,04,26,03,02,5.60
2020,04,26,03,03,5.60
2020,04,26,03,04,5.60
2020,04,26,03,05,5.60
2020,04,26,03,06,5.60
2020,04,26,03,07,5.60
2020,04,26,03,08,5.60
2020,04,26,03,09,5.60
2020,04,26,03,10,5.60
2020,04,26,03,11,5.60
2020,04,26,03,12,5.60
2020,04,26,03,13,5.60
2020,04,26,03,14,5.60
2020,04,26,03,15,5.60
2020,04,26,03,16,5.60
2020,04,26,03,17,5.60
2020,04,26,03,18,5.60
2020,04,26,03,19,5.70
2020,04,26,03,20,5.70
2020,04,26,03,21,5.70
2020,04,26,03,22,5.70
2020,04,26,03,23,5.70
2020,04,26,03,24,5.70
2020,04,26,03,25,5.70
2020,04,26,03,26,5.70
2020,04,26,03,27,5.70
2020,04,26,03,28,5.70
2020,04,26,03,29,5.70
2020,04,26,03,30,5.70
2020,04,26,03,31,5.70
2020,04,26,03,32,5.70
2020,04,26,03,33,5.70
2020,04,26,03,34,5.70
2020,04,26,03,35,5.70
2020,04,26,03,36,5.70
2020,04,26,03,37,5.70
2020,04,26,03,38,5.70
2020,04,26,03,39,5.70
2020,04,26,03,40,5.70
2020,04,26,03,41,5.70
2020,04,26,03,42,5.80
2020,04,26,03,43,5.80
2020,04,26,03,44,5.80
2020,04,26,03,45,5.80
2020,04,26,03,46,5.80
2020,04,26,03,47,5.80
2020,04,26,03,48,5.80
2020,04,26,03,49,5.80
2020,04,26,03,50,5.80
2020,04,26,03,51,5.80
2020,04,26,03,52,5.90
2020,04,26,03,53,5.90
2020,04,26,03,54,5.90
2020,04,26,03,55,5.90
2020,04,26,03,56,5.90
2020,04,26,03,57,5.90
2020,04,26,03,58,5.90
2020,04,26,03,59,5.90
2020,04,26,04,00,5.90
2020,04,26,04,01,5.90
2020,04,26,04,02,5.90
2020,04,26,04,03,5.90
2020,04,26,04,04,5.90
2020,04,26,04,05,5.90
2020,04,26,04,06,5.90
2020,04,26,04,07,5.90
2020,04,26,04,08,5.90
2020,04,26,04,09,5.90
2020,04,26,04,10,5.90
2020,04,26,04,11,6.00
2020,04,26,04,12,6.00
2020,04,26,04,13,6.00
2020,04,26,04,14,6.00
2020,04,26,04,15,6.00
2020,04,26,04,16,6.00
2020,04,26,04,17,6.10
2020,04,26,04,18,6.10
2020,04,26,04,19,6.00
2020,04,26,04,20,6.00
2020,04,26,04,21,6.00
2020,04,26,04,22,6.00
2020,04,26,04,23,6.00
2020,04,26,04,24,6.00
2020,04,26,04,25,6.00
2020,04,26,04,26,6.00
2020,04,26,04,27,6.00
2020,04,26,04,28,6.00
2020,04,26,04,29,6.00
2020,04,26,04,30,5.90
2020,04,26,04,31,5.90
2020,04,26,04,32,5.90
2020,04,26,04,33,5.90
2020,04,26,04,34,6.00
2020,04,26,04,35,6.00
2020,04,26,04,36,6.00
2020,04,26,04,37,6.00
2020,04,26,04,38,6.10
2020,04,26,04,39,6.10
2020,04,26,04,40,6.10
2020,04,26,04,41,6.00
2020,04,26,04,42,6.00
2020,04,26,04,43,6.00
2020,04,26,04,44,6.00
2020,04,26,04,45,5.90
2020,04,26,04,46,5.90
2020,04,26,04,47,5.90
2020,04,26,04,48,6.00
2020,04,26,04,49,6.10
2020,04,26,04,50,6.10
2020,04,26,04,51,6.10
2020,04,26,04,52,6.10
2020,04,26,04,53,6.10
2020,04,26,04,54,6.10
2020,04,26,04,55,6.10
2020,04,26,04,56,6.10
2020,04,26,04,57,6.10
2020,04,26,04,58,6.10
2020,04,26,04,59,6.10
2020,04,26,05,00,6.10
2020,04,26,05,01,6.10
2020,04,26,05,02,6.10
2020,04,26,05,03,6.10
2020,04,26,05,04,6.10
2020,04,26,05,05,6.10
2020,04,26,05,06,6.10
2020,04,26,05,07,6.10
2020,04,26,05,08,6.10
2020,04,26,05,09,6.10
2020,04,26,05,10,6.00
2020,04,26,05,11,6.00
2020,04,26,05,12,6.00
2020,04,26,05,13,6.00
2020,04,26,05,14,6.00
2020,04,26,05,15,6.00
2020,04,26,05,16,6.00
2020,04,26,05,17,6.00
2020,04,26,05,18,6.00
2020,04,26,05,19,6.00
2020,04,26,05,20,6.00
2020,04,26,05,21,6.00
2020,04,26,05,22,6.00
2020,04,26,05,23,6.00
2020,04,26,05,24,6.00
2020,04,26,05,25,6.00
2020,04,26,05,26,6.10
2020,04,26,05,27,6.10
2020,04,26,05,28,6.10
2020,04,26,05,29,6.10
2020,04,26,05,30,6.10
2020,04,26,05,31,6.10
2020,04,26,05,32,6.10
2020,04,26,05,33,6.10
2020,04,26,05,34,6.10
2020,04,26,05,35,6.10
2020,04,26,05,36,6.10
2020,04,26,05,37,6.10
2020,04,26,05,38,6.10
2020,04,26,05,39,6.10
2020,04,26,05,40,6.10
2020,04,26,05,41,6.10
2020,04,26,05,42,6.20
2020,04,26,05,43,6.10
2020,04,26,05,44,6.20
2020,04,26,05,45,6.20
2020,04,26,05,46,6.20
2020,04,26,05,47,6.20
2020,04,26,05,48,6.20
2020,04,26,05,49,6.20
2020,04,26,05,50,6.20
2020,04,26,05,51,6.20
2020,04,26,05,52,6.20
2020,04,26,05,53,6.20
2020,04,26,05,54,6.20
2020,04,26,05,55,6.20
2020,04,26,05,56,6.20
2020,04,26,05,57,6.20
2020,04,26,05,58,6.20
2020,04,26,05,59,6.20
2020,04,26,06,00,6.20
2020,04,26,06,01,6.20
2020,04,26,06,02,6.20
2020,04,26,06,03,6.20
2020,04,26,06,04,6.20
2020,04,26,06,05,6.30
2020,04,26,06,06,6.30
2020,04,26,06,07,6.30
2020,04,26,06,08,6.30
2020,04,26,06,09,6.30
2020,04,26,06,10,6.30
2020,04,26,06,11,6.30
2020,04,26,06,12,6.30
2020,04,26,06,13,6.30
2020,04,26,06,14,6.30
2020,04,26,06,15,6.30
2020,04,26,06,16,6.30
2020,04,26,06,17,6.30
2020,04,26,06,18,6.30
2020,04,26,06,19,6.30
2020,04,26,06,20,6.30
2020,04,26,06,21,6.40
2020,04,26,06,22,6.40
2020,04,26,06,23,6.40
2020,04,26,06,24,6.40
2020,04,26,06,25,6.40
2020,04,26,06,26,6.40
2020,04,26,06,27,6.40
2020,04,26,06,28,6.40
2020,04,26,06,29,6.40
2020,04,26,06,30,6.50
2020,04,26,06,31,6.50
2020,04,26,06,32,6.50
2020,04,26,06,33,6.50
2020,04,26,06,34,6.60
2020,04,26,06,35,6.60
2020,04,26,06,36,6.60
2020,04,26,06,37,6.60
2020,04,26,06,38,6.60
2020,04,26,06,39,6.60
2020,04,26,06,40,6.60
2020,04,26,06,41,6.70
2020,04,26,06,42,6.70
2020,04,26,06,43,6.70
2020,04,26,06,44,6.70
2020,04,26,06,45,6.70
2020,04,26,06,46,6.70
2020,04,26,06,47,6.70
2020,04,26,06,48,6.70
2020,04,26,06,49,6.70
2020,04,26,06,50,6.70
2020,04,26,06,51,6.80
2020,04,26,06,52,6.80
2020,04,26,06,53,6.80
2020,04,26,06,54,6.80
2020,04,26,06,55,6.80
2020,04,26,06,56,6.80
2020,04,26,06,57,6.80
2020,04,26,06,58,6.80
2020,04,26,06,59,6.80
2020,04,26,07,00,6.80
2020,04,26,07,01,6.80
2020,04,26,07,02,6.90
2020,04,26,07,03,6.90
2020,04,26,07,04,6.90
2020,04,26,07,05,6.90
2020,04,26,07,06,6.90
2020,04,26,07,07,6.90
2020,04,26,07,08,6.90
2020,04,26,07,09,7.00
2020,04,26,07,10,7.00
2020,04,26,07,11,7.00
2020,04,26,07,12,7.10
2020,04,26,07,13,7.10
2020,04,26,07,14,7.10
2020,04,26,07,15,7.10
2020,04,26,07,16,7.20
2020,04,26,07,17,7.20
2020,04,26,07,18,7.20
2020,04,26,07,19,7.20
2020,04,26,07,20,7.20
2020,04,26,07,21,7.20
2020,04,26,07,22,7.30
2020,04,26,07,23,7.30
2020,04,26,07,24,7.30
2020,04,26,07,25,7.30
2020,04,26,07,26,7.30
2020,04,26,07,27,7.40
2020,04,26,07,28,7.40
2020,04,26,07,29,7.40
2020,04,26,07,30,7.40
2020,04,26,07,31,7.50
2020,04,26,07,32,7.50
2020,04,26,07,33,7.60
2020,04,26,07,34,7.60
2020,04,26,07,35,7.60
2020,04,26,07,36,7.60
2020,04,26,07,37,7.60
2020,04,26,07,38,7.70
2020,04,26,07,39,7.70
2020,04,26,07,40,7.70
2020,04,26,07,41,7.70
2020,04,26,07,42,7.70
2020,04,26,07,43,7.80
2020,04,26,07,44,7.80
2020,04,26,07,45,7.80
2020,04,26,07,46,7.80
2020,04,26,07,47,7.90
2020,04,26,07,48,7.90
2020,04,26,07,49,7.90
2020,04,26,07,50,7.90
2020,04,26,07,51,7.90
2020,04,26,07,52,8.00
2020,04,26,07,53,8.00
2020,04,26,07,54,8.10
2020,04,26,07,55,8.10
2020,04,26,07,56,8.10
2020,04,26,07,57,8.10
2020,04,26,07,58,8.10
2020,04,26,07,59,8.10
2020,04,26,08,00,8.10
2020,04,26,08,01,8.20
2020,04,26,08,02,8.20
2020,04,26,08,03,8.20
2020,04,26,08,04,8.20
2020,04,26,08,05,8.20
2020,04,26,08,06,8.30
2020,04,26,08,07,8.30
2020,04,26,08,08,8.30
2020,04,26,08,09,8.40
2020,04,26,08,10,8.40
2020,04,26,08,11,8.40
2020,04,26,08,12,8.40
2020,04,26,08,13,8.50
2020,04,26,08,14,8.50
2020,04,26,08,15,8.50
2020,04,26,08,16,8.60
2020,04,26,08,17,8.60
2020,04,26,08,18,8.60
2020,04,26,08,19,8.60
2020,04,26,08,20,8.70
2020,04,26,08,21,8.70
2020,04,26,08,22,8.70
2020,04,26,08,23,8.80
2020,04,26,08,24,8.80
2020,04,26,08,25,8.80
2020,04,26,08,26,8.80
2020,04,26,08,27,8.80
2020,04,26,08,28,8.90
2020,04,26,08,29,8.90
2020,04,26,08,30,8.90
2020,04,26,08,31,8.90
2020,04,26,08,32,9.00
2020,04,26,08,33,9.00
2020,04,26,08,34,9.00
2020,04,26,08,35,9.00
2020,04,26,08,36,9.10
2020,04,26,08,37,9.10
2020,04,26,08,38,9.10
2020,04,26,08,39,9.10
2020,04,26,08,40,9.20
2020,04,26,08,41,9.20
2020,04,26,08,42,9.20
2020,04,26,08,43,9.20
2020,04,26,08,44,9.30
2020,04,26,08,45,9.30
2020,04,26,08,46,9.30
2020,04,26,08,47,9.30
2020,04,26,08,48,9.40
2020,04,26,08,49,9.40
2020,04,26,08,50,9.40
2020,04,26,08,51,9.40
2020,04,26,08,52,9.50
2020,04,26,08,53,9.50
2020,04,26,08,54,9.60
2020,04,26,08,55,9.60
2020,04,26,08,56,9.60
2020,04,26,08,57,9.60
2020,04,26,08,58,9.60
2020,04,26,08,59,9.60
2020,04,26,09,00,9.60
2020,04,26,09,01,9.60
2020,04,26,09,02,9.60
2020,04,26,09,03,9.60
2020,04,26,09,04,9.70
2020,04,26,09,05,9.70
2020,04,26,09,06,9.70
2020,04,26,09,07,9.70
2020,04,26,09,08,9.70
2020,04,26,09,09,9.70
2020,04,26,09,10,9.70
2020,04,26,09,11,9.70
2020,04,26,09,12,9.70
2020,04,26,09,13,9.70
2020,04,26,09,14,9.70
2020,04,26,09,15,9.70
2020,04,26,09,16,9.70
2020,04,26,09,17,9.70
2020,04,26,09,18,9.70
2020,04,26,09,19,9.70
2020,04,26,09,20,9.70
2020,04,26,09,21,9.70
2020,04,26,09,22,9.70
2020,04,26,09,23,9.70
2020,04,26,09,24,9.80
2020,04,26,09,25,9.80
2020,04,26,09,26,9.80
2020,04,26,09,27,9.80
2020,04,26,09,28,9.80
2020,04,26,09,29,9.80
2020,04,26,09,30,9.80
2020,04,26,09,31,9.80
2020,04,26,09,32,9.80
2020,04,26,09,33,9.80
2020,04,26,09,34,9.80
2020,04,26,09,35,9.80
2020,04,26,09,36,9.80
2020,04,26,09,37,9.90
2020,04,26,09,38,9.90
2020,04,26,09,39,9.90
2020,04,26,09,40,9.90
2020,04,26,09,41,10.00
2020,04,26,09,42,10.00
2020,04,26,09,43,10.00
2020,04,26,09,44,10.10
2020,04,26,09,45,10.10
2020,04,26,09,46,10.10
2020,04,26,09,47,10.10
2020,04,26,09,48,10.20
2020,04,26,09,49,10.20
2020,04,26,09,50,10.20
2020,04,26,09,51,10.20
2020,04,26,09,52,10.30
2020,04,26,09,53,10.30
2020,04,26,09,54,10.30
2020,04,26,09,55,10.30
2020,04,26,09,56,10.30
2020,04,26,09,57,10.40
2020,04,26,09,58,10.40
2020,04,26,09,59,10.40
2020,04,26,10,00,10.50
2020,04,26,10,01,10.50
2020,04,26,10,02,10.60
2020,04,26,10,03,10.60
2020,04,26,10,04,10.60
2020,04,26,10,05,10.60
2020,04,26,10,06,10.60
2020,04,26,10,07,10.60
2020,04,26,10,08,10.60
2020,04,26,10,09,10.70
2020,04,26,10,10,10.70
2020,04,26,10,11,10.70
2020,04,26,10,12,10.70
2020,04,26,10,13,10.70
2020,04,26,10,14,10.80
2020,04,26,10,15,10.80
2020,04,26,10,16,10.80
2020,04,26,10,17,10.80
2020,04,26,10,18,10.80
2020,04,26,10,19,10.80
2020,04,26,10,20,10.80
2020,04,26,10,21,10.80
2020,04,26,10,22,10.90
2020,04,26,10,23,10.90
2020,04,26,10,24,10.90
2020,04,26,10,25,10.90
2020,04,26,10,26,10.90
2020,04,26,10,27,10.90
2020,04,26,10,28,10.90
2020,04,26,10,29,11.00
2020,04,26,10,30,10.90
2020,04,26,10,31,10.90
2020,04,26,10,32,11.00
2020,04,26,10,33,11.00
2020,04,26,10,34,11.00
2020,04,26,10,35,11.00
2020,04,26,10,36,11.00
2020,04,26,10,37,11.00
2020,04,26,10,38,11.00
2020,04,26,10,39,11.00
2020,04,26,10,40,11.10
2020,04,26,10,41,11.10
2020,04,26,10,42,11.10
2020,04,26,10,43,11.10
2020,04,26,10,44,11.20
2020,04,26,10,45,11.20
2020,04,26,10,46,11.20
2020,04,26,10,47,11.20
2020,04,26,10,48,11.20
2020,04,26,10,49,11.20
2020,04,26,10,50,11.30
2020,04,26,10,51,11.30
2020,04,26,10,52,11.30
2020,04,26,10,53,11.30
2020,04,26,10,54,11.30
2020,04,26,10,55,11.30
2020,04,26,10,56,11.30
2020,04,26,10,57,11.40
2020,04,26,10,58,11.40
2020,04,26,10,59,11.40
2020,04,26,11,00,11.40
2020,04,26,11,01,11.40
2020,04,26,11,02,11.40
2020,04,26,11,03,11.40
2020,04,26,11,04,11.40
2020,04,26,11,05,11.50
2020,04,26,11,06,11.50
2020,04,26,11,07,11.50
2020,04,26,11,08,11.50
2020,04,26,11,09,11.60
2020,04,26,11,10,11.60
2020,04,26,11,11,11.60
2020,04,26,11,12,11.60
2020,04,26,11,13,11.60
2020,04,26,11,14,11.60
2020,04,26,11,15,11.60
2020,04,26,11,16,11.60
2020,04,26,11,17,11.60
2020,04,26,11,18,11.70
2020,04,26,11,19,11.70
2020,04,26,11,20,11.70
2020,04,26,11,21,11.70
2020,04,26,11,22,11.70
2020,04,26,11,23,11.70
2020,04,26,11,24,11.80
2020,04,26,11,25,11.80
2020,04,26,11,26,11.80
2020,04,26,11,27,11.80
2020,04,26,11,28,11.80
2020,04,26,11,29,11.80
2020,04,26,11,30,11.80
2020,04,26,11,31,11.90
2020,04,26,11,32,11.90
2020,04,26,11,33,11.90
2020,04,26,11,34,11.90
2020,04,26,11,35,11.90
2020,04,26,11,36,11.90
2020,04,26,11,37,11.90
2020,04,26,11,38,11.90
2020,04,26,11,39,11.90
2020,04,26,11,40,11.90
2020,04,26,11,41,12.00
2020,04,26,11,42,12.00
2020,04,26,11,43,11.90
2020,04,26,11,44,11.90
2020,04,26,11,45,11.90
2020,04,26,11,46,11.90
2020,04,26,11,47,11.80
2020,04,26,11,48,11.80
2020,04,26,11,49,11.80
2020,04,26,11,50,11.80
2020,04,26,11,51,11.80
2020,04,26,11,52,11.80
2020,04,26,11,53,11.80
2020,04,26,11,54,11.80
2020,04,26,11,55,11.80
2020,04,26,11,56,11.80
2020,04,26,11,57,11.80
2020,04,26,11,58,11.80
2020,04,26,11,59,11.90
2020,04,26,12,00,11.90
2020,04,26,12,01,12.00
2020,04,26,12,02,12.00
2020,04,26,12,03,12.10
2020,04,26,12,04,12.20
2020,04,26,12,05,12.20
2020,04,26,12,06,12.20
2020,04,26,12,07,12.30
2020,04,26,12,08,12.40
2020,04,26,12,09,12.40
2020,04,26,12,10,12.50
2020,04,26,12,11,12.50
2020,04,26,12,12,12.60
2020,04,26,12,13,12.60
2020,04,26,12,14,12.60
2020,04,26,12,15,12.60
2020,04,26,12,16,12.60
2020,04,26,12,17,12.70
2020,04,26,12,18,12.70
2020,04,26,12,19,12.70
2020,04,26,12,20,12.80
2020,04,26,12,21,12.80
2020,04,26,12,22,12.90
2020,04,26,12,23,12.90
2020,04,26,12,24,13.00
2020,04,26,12,25,13.00
2020,04,26,12,26,13.10
2020,04,26,12,27,13.10
2020,04,26,12,28,13.10
2020,04,26,12,29,13.20
2020,04,26,12,30,13.20
2020,04,26,12,31,13.20
2020,04,26,12,32,13.20
2020,04,26,12,33,13.10
2020,04,26,12,34,13.10
2020,04,26,12,35,13.10
2020,04,26,12,36,13.10
2020,04,26,12,37,13.00
2020,04,26,12,38,13.00
2020,04,26,12,39,13.00
2020,04,26,12,40,13.00
2020,04,26,12,41,13.00
2020,04,26,12,42,13.00
2020,04,26,12,43,13.00
2020,04,26,12,44,12.90
2020,04,26,12,45,13.00
2020,04,26,12,46,12.90
2020,04,26,12,47,13.00
2020,04,26,12,48,13.00
2020,04,26,12,49,13.00
2020,04,26,12,50,13.00
2020,04,26,12,51,13.00
2020,04,26,12,52,13.00
2020,04,26,12,53,13.00
2020,04,26,12,54,13.10
2020,04,26,12,55,13.10
2020,04,26,12,56,13.10
2020,04,26,12,57,13.10
2020,04,26,12,58,13.10
2020,04,26,12,59,13.10
2020,04,26,13,00,13.10
2020,04,26,13,01,13.10
2020,04,26,13,02,13.10
2020,04,26,13,03,13.10
2020,04,26,13,04,13.10
2020,04,26,13,05,13.10
2020,04,26,13,06,13.10
2020,04,26,13,07,13.10
2020,04,26,13,08,13.10
2020,04,26,13,09,13.10
2020,04,26,13,10,13.10
2020,04,26,13,11,13.10
2020,04,26,13,12,13.10
2020,04,26,13,13,13.20
2020,04,26,13,14,13.20
2020,04,26,13,15,13.20
2020,04,26,13,16,13.20
2020,04,26,13,17,13.20
2020,04,26,13,18,13.20
2020,04,26,13,19,13.30
2020,04,26,13,20,13.30
2020,04,26,13,21,13.30
2020,04,26,13,22,13.30
2020,04,26,13,23,13.30
2020,04,26,13,24,13.30
2020,04,26,13,25,13.30
2020,04,26,13,26,13.30
2020,04,26,13,27,13.30
2020,04,26,13,28,13.20
2020,04,26,13,29,13.20
2020,04,26,13,30,13.20
2020,04,26,13,31,13.20
2020,04,26,13,32,13.20
2020,04,26,13,33,13.20
2020,04,26,13,34,13.20
2020,04,26,13,35,13.20
2020,04,26,13,36,13.20
2020,04,26,13,37,13.20
2020,04,26,13,38,13.20
2020,04,26,13,39,13.30
2020,04,26,13,40,13.30
2020,04,26,13,41,13.30
2020,04,26,13,42,13.40
2020,04,26,13,43,13.40
2020,04,26,13,44,13.40
2020,04,26,13,45,13.50
2020,04,26,13,46,13.50
2020,04,26,13,47,13.50
2020,04,26,13,48,13.60
2020,04,26,13,49,13.60
2020,04,26,13,50,13.60
2020,04,26,13,51,13.60
2020,04,26,13,52,13.70
2020,04,26,13,53,13.70
2020,04,26,13,54,13.70
2020,04,26,13,55,13.70
2020,04,26,13,56,13.70
2020,04,26,13,57,13.80
2020,04,26,13,58,13.80
2020,04,26,13,59,13.80
2020,04,26,14,00,13.80
2020,04,26,14,01,13.80
2020,04,26,14,02,13.70
2020,04,26,14,03,13.70
2020,04,26,14,04,13.70
2020,04,26,14,05,13.60
2020,04,26,14,06,13.60
2020,04,26,14,07,13.60
2020,04,26,14,08,13.60
2020,04,26,14,09,13.60
2020,04,26,14,10,13.50
2020,04,26,14,11,13.40
2020,04,26,14,12,13.40
2020,04,26,14,13,13.40
2020,04,26,14,14,13.40
2020,04,26,14,15,13.40
2020,04,26,14,16,13.40
2020,04,26,14,17,13.40
2020,04,26,14,18,13.40
2020,04,26,14,19,13.50
2020,04,26,14,20,13.50
2020,04,26,14,21,13.60
2020,04,26,14,22,13.60
2020,04,26,14,23,13.60
2020,04,26,14,24,13.70
2020,04,26,14,25,13.70
2020,04,26,14,26,13.70
2020,04,26,14,27,13.70
2020,04,26,14,28,13.70
2020,04,26,14,29,13.60
2020,04,26,14,30,13.60
2020,04,26,14,31,13.60
2020,04,26,14,32,13.50
2020,04,26,14,33,13.50
2020,04,26,14,34,13.60
2020,04,26,14,35,13.60
2020,04,26,14,36,13.60
2020,04,26,14,37,13.70
2020,04,26,14,38,13.70
2020,04,26,14,39,13.70
2020,04,26,14,40,13.70
2020,04,26,14,41,13.80
2020,04,26,14,42,13.80
2020,04,26,14,43,13.80
2020,04,26,14,44,13.80
2020,04,26,14,45,13.80
2020,04,26,14,46,13.80
2020,04,26,14,47,13.80
2020,04,26,14,48,13.70
2020,04,26,14,49,13.70
2020,04,26,14,50,13.70
2020,04,26,14,51,13.80
2020,04,26,14,52,13.80
2020,04,26,14,53,13.90
2020,04,26,14,54,13.90
2020,04,26,14,55,13.90
2020,04,26,14,56,14.00
2020,04,26,14,57,14.00
2020,04,26,14,58,14.10
2020,04,26,14,59,14.20
2020,04,26,15,00,14.20
2020,04,26,15,01,14.20
2020,04,26,15,02,14.10
2020,04,26,15,03,14.10
2020,04,26,15,04,14.00
2020,04,26,15,05,13.90
2020,04,26,15,06,13.90
2020,04,26,15,07,13.80
2020,04,26,15,08,13.80
2020,04,26,15,09,13.80
2020,04,26,15,10,13.80
2020,04,26,15,11,13.70
2020,04,26,15,12,13.70
2020,04,26,15,13,13.60
2020,04,26,15,14,13.50
2020,04,26,15,15,13.50
2020,04,26,15,16,13.40
2020,04,26,15,17,13.40
2020,04,26,15,18,13.30
2020,04,26,15,19,13.30
2020,04,26,15,20,13.30
2020,04,26,15,21,13.30
2020,04,26,15,22,13.30
2020,04,26,15,23,13.30
2020,04,26,15,24,13.20
2020,04,26,15,25,13.20
2020,04,26,15,26,13.20
2020,04,26,15,27,13.20
2020,04,26,15,28,13.20
2020,04,26,15,29,13.20
2020,04,26,15,30,13.20
2020,04,26,15,31,13.20
2020,04,26,15,32,13.10
2020,04,26,15,33,13.10
2020,04,26,15,34,13.10
2020,04,26,15,35,13.10
2020,04,26,15,36,13.10
2020,04,26,15,37,13.10
2020,04,26,15,38,13.10
2020,04,26,15,39,13.10
2020,04,26,15,40,13.10
2020,04,26,15,41,13.10
2020,04,26,15,42,13.10
2020,04,26,15,43,13.10
2020,04,26,15,44,13.10
2020,04,26,15,45,13.10
2020,04,26,15,46,13.10
2020,04,26,15,47,13.10
2020,04,26,15,48,13.10
2020,04,26,15,49,13.20
2020,04,26,15,50,13.20
2020,04,26,15,51,13.20
2020,04,26,15,52,13.20
2020,04,26,15,53,13.20
2020,04,26,15,54,13.20
2020,04,26,15,55,13.20
2020,04,26,15,56,13.20
2020,04,26,15,57,13.20
2020,04,26,15,58,13.20
2020,04,26,15,59,13.30
2020,04,26,16,00,13.30
2020,04,26,16,01,13.30
2020,04,26,16,02,13.30
2020,04,26,16,03,13.30
2020,04,26,16,04,13.30
2020,04,26,16,05,13.20
2020,04,26,16,06,13.30
2020,04,26,16,07,13.30
2020,04,26,16,08,13.30
2020,04,26,16,09,13.40
2020,04,26,16,10,13.40
2020,04,26,16,11,13.40
2020,04,26,16,12,13.40
2020,04,26,16,13,13.40
2020,04,26,16,14,13.40
2020,04,26,16,15,13.50
2020,04,26,16,16,13.50
2020,04,26,16,17,13.60
2020,04,26,16,18,13.60
2020,04,26,16,19,13.70
2020,04,26,16,20,13.70
2020,04,26,16,21,13.70
2020,04,26,16,22,13.70
2020,04,26,16,23,13.80
2020,04,26,16,24,13.90
2020,04,26,16,25,13.90
2020,04,26,16,26,13.90
2020,04,26,16,27,14.00
2020,04,26,16,28,14.00
2020,04,26,16,29,14.10
2020,04,26,16,30,14.10
2020,04,26,16,31,14.10
2020,04,26,16,32,14.10
2020,04,26,16,33,14.10
2020,04,26,16,34,14.10
2020,04,26,16,35,14.20
2020,04,26,16,36,14.20
2020,04,26,16,37,14.20
2020,04,26,16,38,14.20
2020,04,26,16,39,14.20
2020,04,26,16,40,14.20
2020,04,26,16,41,14.20
2020,04,26,16,42,14.20
2020,04,26,16,43,14.10
2020,04,26,16,44,14.00
2020,04,26,16,45,14.00
2020,04,26,16,46,13.90
2020,04,26,16,47,13.80
2020,04,26,16,48,13.80
2020,04,26,16,49,13.80
2020,04,26,16,50,13.80
2020,04,26,16,51,13.80
2020,04,26,16,52,13.80
2020,04,26,16,53,13.80
2020,04,26,16,54,13.80
2020,04,26,16,55,13.80
2020,04,26,16,56,13.80
2020,04,26,16,57,13.80
2020,04,26,16,58,13.80
2020,04,26,16,59,13.80
2020,04,26,17,00,13.80
2020,04,26,17,01,13.80
2020,04,26,17,02,13.80
2020,04,26,17,03,13.80
2020,04,26,17,04,13.80
2020,04,26,17,05,13.80
2020,04,26,17,06,13.80
2020,04,26,17,07,13.80
2020,04,26,17,08,13.80
2020,04,26,17,09,13.80
2020,04,26,17,10,13.80
2020,04,26,17,11,13.80
2020,04,26,17,12,13.80
2020,04,26,17,13,13.80
2020,04,26,17,14,13.70
2020,04,26,17,15,13.60
2020,04,26,17,16,13.60
2020,04,26,17,17,13.50
2020,04,26,17,18,13.50
2020,04,26,17,19,13.40
2020,04,26,17,20,13.30
2020,04,26,17,21,13.30
2020,04,26,17,22,13.30
2020,04,26,17,23,13.20
2020,04,26,17,24,13.20
2020,04,26,17,25,13.20
2020,04,26,17,26,13.20
2020,04,26,17,27,13.10
2020,04,26,17,28,13.10
2020,04,26,17,29,13.10
2020,04,26,17,30,13.10
2020,04,26,17,31,13.10
2020,04,26,17,32,13.10
2020,04,26,17,33,13.10
2020,04,26,17,34,13.10
2020,04,26,17,35,13.10
2020,04,26,17,36,13.00
2020,04,26,17,37,13.00
2020,04,26,17,38,13.00
2020,04,26,17,39,12.90
2020,04,26,17,40,12.90
2020,04,26,17,41,12.90
2020,04,26,17,42,12.90
2020,04,26,17,43,12.80
2020,04,26,17,44,12.80